Change the Weather History Date:

Thursday, November 14, 2013

  Actual Average Record
Temperature  
Mean Temperature 44 °F -  
Max Temperature 55 °F 51 °F 104 °F (1997)
Min Temperature 33 °F 33 °F 7 °F (1940)
Degree Days  
Heating Degree Days 21    
Moisture  
Dew Point 22 °F    
Average Humidity 43    
Maximum Humidity 56    
Minimum Humidity 29    
Precipitation  
Precipitation 0.00 in - - ()
Sea Level Pressure  
Sea Level Pressure 30.03 in    
Wind  
Wind Speed 14 mph (SSW)    
Max Wind Speed 21 mph    
Max Gust Speed 28 mph    
Visibility 10 miles    
Events      
Averages and records for this station are not official NWS values.
T = Trace of Precipitation, MM = Missing Value Source: NWS Daily Summary

Daily Weather History Graph

Daily Weather History Graph

Search for Another Location

Airport or City:

Trip Planner

Search our weather history database for the weather conditions in past years. The results will help you decide how hot, cold, wet, or windy it might be!

Date:

Astronomy

Nov. 14, 2013 Rise Set
Actual Time 6:51 AM CST 4:48 PM CST
Civil Twilight 6:21 AM CST 5:18 PM CST
Nautical Twilight 5:48 AM CST 5:50 PM CST
Astronomical Twilight 5:16 AM CST 6:23 PM CST
Moon 3:10 PM CST (11/14) 3:46 AM CST (11/14)
Length of Visible Light 10h 56m
Length of Day
9h 57m
Waxing Gibbous, 92% of the Moon is Illuminated
Nov 14
Waxing Gibbous
Nov 17
Full
Nov 25
Last Quarter
Dec 2
New
Dec 9
First Quarter

Hourly Weather History & Observations

Time (CST) Temp. Windchill Dew Point Humidity Pressure Visibility Wind Dir Wind Speed Gust Speed Precip Events Conditions
12:15 AM 35.6 °F 27.5 °F 17.6 °F 48% 30.17 in 10.0 mi SSW 11.5 mph 18.4 mph N/A   Clear
12:35 AM 35.6 °F 27.1 °F 17.6 °F 48% 30.16 in 10.0 mi SSW 12.7 mph - N/A   Clear
12:55 AM 35.6 °F 26.6 °F 17.6 °F 48% 30.16 in 10.0 mi SSW 13.8 mph - N/A   Clear
1:15 AM 35.6 °F 25.9 °F 17.6 °F 48% 30.15 in 10.0 mi SSW 16.1 mph 21.9 mph N/A   Clear
1:35 AM 35.6 °F 26.2 °F 17.6 °F 48% 30.15 in 10.0 mi SSW 15.0 mph 20.7 mph N/A   Clear
1:55 AM 33.8 °F 23.9 °F 19.4 °F 56% 30.14 in 10.0 mi SSW 15.0 mph - N/A   Clear
2:15 AM 33.8 °F 24.3 °F 19.4 °F 56% 30.14 in 10.0 mi SSW 13.8 mph - N/A   Clear
2:35 AM 35.6 °F 26.2 °F 19.4 °F 52% 30.13 in 10.0 mi SSW 15.0 mph - N/A   Clear
2:55 AM 35.6 °F 27.1 °F 19.4 °F 52% 30.12 in 10.0 mi SSW 12.7 mph 20.7 mph N/A   Clear
3:15 AM 35.6 °F 26.2 °F 19.4 °F 52% 30.12 in 10.0 mi SSW 15.0 mph 20.7 mph N/A   Clear
3:35 AM 35.6 °F 26.6 °F 21.2 °F 56% 30.11 in 10.0 mi SSW 13.8 mph 21.9 mph N/A   Clear
3:55 AM 35.6 °F 26.2 °F 21.2 °F 56% 30.10 in 10.0 mi SSW 15.0 mph 20.7 mph N/A   Clear
4:15 AM 35.6 °F 26.6 °F 21.2 °F 56% 30.10 in - SSW 13.8 mph - N/A   Clear
4:35 AM 35.6 °F 27.1 °F 21.2 °F 56% 30.10 in 10.0 mi SSW 12.7 mph 19.6 mph N/A   Clear
4:55 AM 35.6 °F 25.9 °F 21.2 °F 56% 30.09 in 10.0 mi SSW 16.1 mph 23.0 mph N/A   Clear
5:15 AM 35.6 °F 26.2 °F 21.2 °F 56% 30.09 in 10.0 mi SSW 15.0 mph - N/A   Clear
5:35 AM 35.6 °F 26.2 °F 21.2 °F 56% 30.08 in 10.0 mi SSW 15.0 mph 23.0 mph N/A   Clear
5:55 AM 35.6 °F 25.5 °F 21.2 °F 56% 30.08 in 10.0 mi SSW 17.3 mph - N/A   Clear
6:15 AM 35.6 °F 25.9 °F 21.2 °F 56% 30.07 in 10.0 mi SSW 16.1 mph 23.0 mph N/A   Clear
6:35 AM 35.6 °F 26.2 °F 21.2 °F 56% 30.07 in 10.0 mi SSW 15.0 mph 25.3 mph N/A   Clear
6:55 AM 35.6 °F 25.9 °F 21.2 °F 56% 30.07 in 10.0 mi SSW 16.1 mph 21.9 mph N/A   Clear
7:15 AM 35.6 °F 25.9 °F 21.2 °F 56% 30.07 in 10.0 mi SSW 16.1 mph - N/A   Clear
7:35 AM 37.4 °F 28.5 °F 21.2 °F 52% 30.07 in 10.0 mi SSW 15.0 mph 21.9 mph N/A   Clear
7:55 AM 37.4 °F 28.5 °F 23.0 °F 56% 30.07 in 10.0 mi SSW 15.0 mph - N/A   Clear
8:15 AM 39.2 °F 30.2 °F 23.0 °F 52% 30.06 in 10.0 mi SSW 17.3 mph 26.5 mph N/A   Clear
8:35 AM 41.0 °F 31.9 °F 23.0 °F 49% 30.06 in 10.0 mi SSW 19.6 mph 26.5 mph N/A   Clear
8:55 AM 41.0 °F 32.2 °F 23.0 °F 49% 30.06 in 10.0 mi SW 18.4 mph 26.5 mph N/A   Clear
9:15 AM 42.8 °F 34.0 °F 23.0 °F 46% 30.06 in 10.0 mi SW 20.7 mph 27.6 mph N/A   Clear
9:35 AM 44.6 °F 36.4 °F 23.0 °F 43% 30.06 in 10.0 mi SW 20.7 mph - N/A   Clear
9:55 AM 44.6 °F 37.4 °F 23.0 °F 43% 30.06 in 10.0 mi SSW 16.1 mph 24.2 mph N/A   Clear
10:15 AM 46.4 °F 38.7 °F 23.0 °F 40% 30.06 in 10.0 mi SSW 20.7 mph - N/A   Clear
10:35 AM 48.2 °F - 24.8 °F 40% 30.06 in 10.0 mi SW 13.8 mph 24.2 mph N/A   Clear
10:55 AM 50.0 °F - 23.0 °F 35% 30.04 in 10.0 mi SW 20.7 mph 27.6 mph N/A   Clear
11:15 AM 50.0 °F - 23.0 °F 35% 30.04 in 10.0 mi SW 18.4 mph - N/A   Clear
11:35 AM 51.8 °F - 24.8 °F 35% 30.03 in 10.0 mi SW 17.3 mph 23.0 mph N/A   Clear
11:55 AM 51.8 °F - 23.0 °F 33% 30.02 in 10.0 mi SW 16.1 mph 25.3 mph N/A   Clear
12:15 PM 51.8 °F - 24.8 °F 35% 30.00 in 10.0 mi SSW 15.0 mph 24.2 mph N/A   Clear
12:35 PM 51.8 °F - 23.0 °F 33% 29.99 in 10.0 mi SW 18.4 mph 26.5 mph N/A   Clear
12:55 PM 51.8 °F - 24.8 °F 35% 29.99 in 10.0 mi SSW 12.7 mph 24.2 mph N/A   Clear
1:15 PM 53.6 °F - 23.0 °F 30% 29.98 in 10.0 mi SSW 16.1 mph 23.0 mph N/A   Clear
1:35 PM 53.6 °F - 23.0 °F 30% 29.97 in 10.0 mi SW 17.3 mph 24.2 mph N/A   Clear
1:55 PM 53.6 °F - 24.8 °F 33% 29.96 in 10.0 mi SSW 17.3 mph 26.5 mph N/A   Clear
2:15 PM 53.6 °F - 23.0 °F 30% 29.95 in 10.0 mi SSW 20.7 mph 27.6 mph N/A   Clear
2:35 PM 53.6 °F - 23.0 °F 30% 29.94 in 10.0 mi SSW 18.4 mph 26.5 mph N/A   Clear
2:55 PM 55.4 °F - 23.0 °F 29% 29.95 in 10.0 mi SSW 15.0 mph 25.3 mph N/A   Clear
3:15 PM 53.6 °F - 23.0 °F 30% 29.94 in 10.0 mi SSW 16.1 mph 23.0 mph N/A   Clear
3:35 PM 53.6 °F - 23.0 °F 30% 29.95 in 10.0 mi SSW 17.3 mph 26.5 mph N/A   Clear
3:55 PM 53.6 °F - 23.0 °F 30% 29.95 in 10.0 mi SSW 12.7 mph 21.9 mph N/A   Clear
4:15 PM 53.6 °F - 23.0 °F 30% 29.94 in 10.0 mi SSW 16.1 mph 21.9 mph N/A   Clear
4:35 PM 51.8 °F - 23.0 °F 33% 29.95 in 10.0 mi SW 11.5 mph 19.6 mph N/A   Clear
4:55 PM 51.8 °F - 23.0 °F 33% 29.95 in 10.0 mi SSW 12.7 mph - N/A   Clear
5:15 PM 50.0 °F - 23.0 °F 35% 29.96 in 10.0 mi SW 11.5 mph - N/A   Clear
5:35 PM 48.2 °F - 23.0 °F 37% 29.95 in 10.0 mi SSW 11.5 mph - N/A   Clear
5:55 PM 48.2 °F - 23.0 °F 37% 29.96 in 10.0 mi SSW 12.7 mph - N/A   Clear
6:15 PM 48.2 °F - 23.0 °F 37% 29.96 in 10.0 mi SSW 11.5 mph - N/A   Clear
6:35 PM 48.2 °F - 23.0 °F 37% 29.97 in 10.0 mi SW 10.4 mph - N/A   Clear
6:55 PM 46.4 °F 41.1 °F 23.0 °F 40% 29.97 in 10.0 mi SSW 11.5 mph - N/A   Clear
7:15 PM 46.4 °F 41.5 °F 23.0 °F 40% 29.97 in 10.0 mi SW 10.4 mph - N/A   Clear
7:35 PM 44.6 °F 39.2 °F 23.0 °F 43% 29.97 in 10.0 mi SW 10.4 mph - N/A   Clear
7:55 PM 42.8 °F 38.0 °F 23.0 °F 46% 29.97 in 10.0 mi SW 8.1 mph - N/A   Clear
8:15 PM 44.6 °F 40.2 °F 21.2 °F 39% 29.97 in 10.0 mi SSW 8.1 mph - N/A   Clear
8:35 PM 44.6 °F 40.2 °F 21.2 °F 39% 29.96 in 10.0 mi SSW 8.1 mph - N/A   Clear
8:55 PM 44.6 °F 39.2 °F 21.2 °F 39% 29.96 in 10.0 mi SSW 10.4 mph - N/A   Clear
9:15 PM 42.8 °F 37.5 °F 21.2 °F 42% 29.96 in 10.0 mi SSW 9.2 mph - N/A   Clear
9:35 PM 44.6 °F 38.4 °F 21.2 °F 39% 29.97 in 10.0 mi SSW 12.7 mph - N/A   Clear
9:55 PM 44.6 °F 38.8 °F 21.2 °F 39% 29.97 in 10.0 mi SSW 11.5 mph - N/A   Clear
10:15 PM 42.8 °F 36.6 °F 21.2 °F 42% 29.97 in 10.0 mi SSW 11.5 mph - N/A   Clear
10:35 PM 42.8 °F 37.0 °F 21.2 °F 42% 29.97 in 10.0 mi SSW 10.4 mph 17.3 mph N/A   Partly Cloudy
10:55 PM 42.8 °F 37.0 °F 21.2 °F 42% 29.96 in 10.0 mi SSW 10.4 mph - N/A   Partly Cloudy
11:15 PM 42.8 °F 36.6 °F 21.2 °F 42% 29.96 in 10.0 mi SW 11.5 mph 17.3 mph N/A   Clear
11:35 PM 41.0 °F 35.2 °F 21.2 °F 45% 29.96 in 10.0 mi SW 9.2 mph - N/A   Clear
11:55 PM 39.2 °F 33.0 °F 23.0 °F 52% 29.96 in 10.0 mi SSW 9.2 mph - N/A   Clear